Shelbyville, IN

5:44 AM EST on December 10, 2019 (GMT -0500)
Shelbyville Municipal

Weather History for KGEZ - October, 2019

Change the Weather History Date:

Thursday, October 10, 2019

  Actual Average Record
Temperature  
Mean Temperature 65 °F 56 °F  
Max Temperature 81 °F 68 °F 87 °F (2010)
Min Temperature 48 °F 44 °F 33 °F (2000)
Degree Days  
Heating Degree Days 0 10  
Month to date heating degree days 24 84  
Since 1 July heating degree days 27 169  
Cooling Degree Days 0 1  
Month to date cooling degree days 36 10  
Year to date cooling degree days 1330 909  
Growing Degree Days 14 (Base 50)    
Moisture  
Dew Point 52 °F    
Average Humidity 69    
Maximum Humidity 96    
Minimum Humidity 42    
Precipitation  
Precipitation 0.00 in 0.10 in 0.71 in (2001)
Month to date precipitation 0.38 1.07  
Year to date precipitation 32.59 34.52  
Sea Level Pressure  
Sea Level Pressure 30.08 in    
Wind  
Wind Speed 7 mph (ESE)    
Max Wind Speed 13 mph    
Max Gust Speed 19 mph    
Visibility 6 miles    
Events Fog    
T = Trace of Precipitation, MM = Missing Value Source: NWS Daily Summary

Daily Weather History Graph

Daily Weather History Graph

Search for Another Location

Airport or City:

Astronomy

Oct. 10, 2019 Rise Set
Actual Time 7:47 AM EDT 7:11 PM EDT
Civil Twilight 7:20 AM EDT 7:38 PM EDT
Nautical Twilight 6:49 AM EDT 8:09 PM EDT
Astronomical Twilight 6:18 AM EDT 8:41 PM EDT
Moon 6:12 PM EDT 4:32 AM EDT
Length of Visible Light 12h 17m
Length of Day
11h 23m
Waxing Gibbous, 91% of the Moon is Illuminated
Oct 10
Waxing Gibbous
Oct 13
Full
Oct 21
Last Quarter
Oct 27
New
Nov 4
First Quarter

Hourly Weather History & Observations

Time (EDT) Temp. Heat Index Dew Point Humidity Pressure Visibility Wind Dir Wind Speed Gust Speed Precip Events Conditions
12:53 AM 55.0 °F - 51.1 °F 86% 30.11 in 10.0 mi SE 4.6 mph - N/A   Clear
1:53 AM 53.1 °F - 51.1 °F 93% 30.11 in 10.0 mi ESE 3.5 mph - N/A   Clear
2:53 AM 52.0 °F - 50.0 °F 93% 30.11 in 6.0 mi East 5.8 mph - N/A   Clear
3:51 AM 51.8 °F - 48.2 °F 88% 30.11 in 1.8 mi East 4.6 mph - N/A   Clear
3:53 AM 51.1 °F - 48.9 °F 92% 30.10 in 1.5 mi East 4.6 mph - N/A   Clear
4:05 AM 51.1 °F - 48.9 °F 92% 30.11 in 0.8 mi East 5.8 mph - N/A   Clear
4:18 AM 51.1 °F - 48.9 °F 92% 30.11 in 1.5 mi East 4.6 mph - N/A   Clear
4:24 AM 51.1 °F - 48.9 °F 92% 30.11 in 2.0 mi East 3.5 mph - N/A   Partly Cloudy
4:30 AM 51.1 °F - 48.9 °F 92% 30.11 in 1.0 mi East 3.5 mph - N/A   Mist
4:38 AM 50.0 °F - 48.0 °F 93% 30.11 in 0.5 mi East 3.5 mph - N/A Fog Fog
4:46 AM 48.9 °F - 46.9 °F 93% 30.11 in 0.2 mi Calm Calm - N/A Fog Fog
4:53 AM 50.0 °F - 48.0 °F 93% 30.10 in 0.2 mi East 3.5 mph - N/A Fog Fog
5:53 AM 50.0 °F - 48.0 °F 93% 30.12 in 0.2 mi ENE 3.5 mph - N/A Fog Fog
6:53 AM 50.0 °F - 48.0 °F 93% 30.12 in 0.2 mi Calm Calm - N/A Fog Fog
7:30 AM 48.9 °F - 46.9 °F 93% 30.12 in 0.2 mi East 4.6 mph - N/A Fog Fog
7:38 AM 48.9 °F - 46.9 °F 93% 30.11 in 0.5 mi East 5.8 mph - N/A Fog Fog
7:53 AM 50.0 °F - 48.0 °F 93% 30.11 in 1.2 mi East 6.9 mph - N/A   Scattered Clouds
8:04 AM 52.0 °F - 50.0 °F 93% 30.11 in 3.0 mi ESE 5.8 mph - N/A   Partly Cloudy
8:53 AM 57.0 °F - 55.0 °F 93% 30.11 in 7.0 mi East 3.5 mph - N/A   Clear
9:53 AM 63.0 °F - 59.0 °F 87% 30.14 in 10.0 mi SE 5.8 mph - N/A   Partly Cloudy
10:53 AM 69.1 °F - 60.1 °F 73% 30.13 in 10.0 mi South 9.2 mph - N/A   Partly Cloudy
11:53 AM 72.0 °F - 59.0 °F 64% 30.12 in 10.0 mi South 10.4 mph - N/A   Clear
12:53 PM 78.1 °F - 55.9 °F 46% 30.10 in 10.0 mi South 10.4 mph 17.3 mph N/A   Clear
1:53 PM 78.1 °F - 54.0 °F 43% 30.09 in 10.0 mi SSW 9.2 mph - N/A   Mostly Cloudy
2:53 PM 79.0 °F - 55.9 °F 45% 30.07 in 10.0 mi South 10.4 mph - N/A   Overcast
3:53 PM 80.1 °F 80.4 °F 57.0 °F 45% 30.04 in 10.0 mi SSE 8.1 mph 19.6 mph N/A   Partly Cloudy
4:53 PM 80.1 °F 80.2 °F 55.9 °F 43% 30.02 in 10.0 mi SSE 4.6 mph - N/A   Mostly Cloudy
5:53 PM 79.0 °F - 57.0 °F 47% 30.02 in 10.0 mi SE 9.2 mph - N/A   Mostly Cloudy
6:53 PM 75.9 °F - 57.0 °F 52% 30.01 in 10.0 mi ESE 5.8 mph - N/A   Scattered Clouds
7:53 PM 73.0 °F - 57.9 °F 59% 30.01 in 10.0 mi ESE 5.8 mph - N/A   Mostly Cloudy
8:53 PM 72.0 °F - 57.0 °F 59% 30.01 in 10.0 mi ESE 6.9 mph - N/A   Partly Cloudy
9:53 PM 71.1 °F - 55.9 °F 59% 30.01 in 10.0 mi SE 9.2 mph - N/A   Clear
10:53 PM 72.0 °F - 55.9 °F 57% 30.01 in 10.0 mi SE 10.4 mph - N/A   Scattered Clouds
11:53 PM 72.0 °F - 55.0 °F 55% 30.01 in 10.0 mi SE 8.1 mph - N/A   Overcast